User: anonymous   Login
Location: Unspecified
(0.0000°N, 0.0000°E)
Time: 14:32:46
(UTC+00:00)
Language:

Himawari 4 - Orbit

View from above orbital plane
View from above orbital plane
View from above satellite
View from above satellite

Ground track
Ground track

The orbit data is extracted from the following two-line orbital elements,

1 20217U 89070A   17084.22466013 -.00000126 +00000-0 +00000-0 0  9990
2 20217 015.7148 014.6957 0043424 058.6675 136.1653 00.97411778099698
Epoch (UTC): 25 March 2017 05:23:30
Eccentricity: 0.0043424
inclination: 15.7148°
perigee height: 36421 km
apogee height: 36794 km
right ascension of ascending node: 14.6957°
argument of perigee: 58.6675°
revolutions per day: 0.97411778
mean anomaly at epoch: 136.1653°
orbit number at epoch: 9969

The dashed part of the orbit path shows where the satellite is in the earth's shadow,  

DLR